Location: Rotheul
(50.2849°N, 11.2349°E)
Time: 15:59:58
(UTC+01:00)

N. Korean satellite - Visible Passes

Search period start: 19 February 2019 00:00
Search period end: 01 March 2019 00:00
Orbit: 457 x 510 km, 97.2° (Epoch: 18 February)

Date Brightness Start Highest point End Pass type
(mag) Time Alt. Az. Time Alt. Az. Time Alt. Az.
19 Feb 8.7 06:00:07 10° NNE 06:03:14 29° E 06:06:17 10° SSE visible
19 Feb 9.1 18:13:33 10° SSW 18:16:47 29° W 18:20:00 10° NNW visible
20 Feb 9.8 05:36:03 10° NE 05:38:18 16° E 05:40:31 10° SE visible
21 Feb 10.7 19:00:47 10° W 19:01:07 10° W 19:01:26 10° W visible
22 Feb 7.6 06:19:06 10° NNE 06:22:30 49° E 06:25:50 10° S visible
22 Feb 9.9 18:33:32 10° SW 18:36:07 18° W 18:38:42 10° NW visible
23 Feb 9.0 05:54:40 10° NE 05:57:38 26° E 06:00:33 10° SSE visible
24 Feb 10.0 05:30:45 10° NE 05:32:41 14° E 05:34:35 10° SE visible
25 Feb 10.5 18:54:16 10° WSW 18:55:29 11° W 18:56:42 10° WNW visible
26 Feb 7.9 06:13:34 10° NNE 06:16:53 42° E 06:20:10 10° S visible
26 Feb 9.8 18:27:46 10° SW 18:30:30 20° W 18:33:15 10° NW visible
27 Feb 9.3 05:49:12 10° NE 05:51:59 22° E 05:54:45 10° SSE visible
28 Feb 10.1 05:25:30 10° ENE 05:27:01 12° E 05:28:31 10° ESE visible
